Torna al catalogo

COSMOS 991

AttivoNavigazionePO
NORAD 10692·PAYLOAD·🇷🇺 Russia

Lanciato Feb 28, 1978 da Plesetsk Cosmodrome

Loading…

Prossimi Passaggi (prossime 24 ore)

TLE

AggiornatoSource: Space-Track

Epoca: Sep 14, 2026, 05:28 UTC

1 10692U 78022A   26257.22834256  .00000062  00000-0  47239-4 0  9998
2 10692  82.9917 180.9652 0037522  40.8821 122.2322 13.76577589437623

Traccia COSMOS 991 in tempo reale con AllMySat

Download on the App Store